Wind_Speed
31 31 30 31 30 29 28 28 33 25 33 38 39 43 41 41 45 43 41 37 40 40 35 34 40 43 45 45 47 49 51 52 55 57 58 61 64 66 68 71 75 70 64 68
32 31 30 31 30 30 30 31 34 26 33 39 42 42 42 44 43 46 46 42 37 39 35 37 41 43 45 46 48 50 51 53 55 58 60 63 66 68 72 77 72 64 66 69
30 29 31 32 32 32 33 35 34 30 35 41 42 42 40 34 42 49 45 39 35 36 40 42 44 44 46 47 49 51 51 54 57 59 62 65 68 72 75 71 63 66 68 70
30 27 30 33 34 31 35 35 33 32 34 38 37 46 39 36 30 35 37 36 40 43 45 45 43 44 49 49 50 52 53 56 58 61 63 67 70 75 69 63 65 68 71 73
23 25 30 34 36 31 33 34 34 32 34 35 34 36 39 29 36 34 34 39 42 42 41 41 43 49 53 53 53 54 56 57 60 61 65 70 75 69 62 63 67 70 73 74
24 26 27 30 24 23 28 29 30 32 31 36 28 26 35 32 32 33 36 40 41 41 42 45 45 51 57 53 54 55 56 59 60 63 66 72 69 60 61 64 68 71 74 77
15 14 17 18 20 24 25 27 31 33 31 34 29 29 25 28 32 39 35 41 42 42 41 44 48 56 56 53 55 56 58 60 62 63 68 69 60 58 61 65 69 71 75 79
20 18 15 19 19 21 22 23 26 31 31 32 26 27 33 34 30 33 39 40 36 39 41 49 55 57 55 54 57 57 60 63 67 66 67 58 57 59 62 66 70 73 78 78
18 16 19 22 25 25 24 26 28 31 31 32 31 25 23 21 27 32 32 35 37 44 50 55 55 57 55 56 57 60 65 70 64 64 57 56 58 60 61 66 70 75 76 64
22 20 24 26 29 30 26 27 28 27 33 35 34 33 29 32 34 32 37 42 46 49 52 54 54 53 56 59 62 63 68 71 60 57 54 56 58 61 65 68 71 72 63 54
20 16 26 27 30 30 29 26 25 29 29 32 36 36 33 35 38 41 44 44 45 44 49 51 51 58 61 62 64 66 72 62 59 53 55 56 57 61 66 71 73 65 53 55
20 20 19 25 26 23 21 20 23 29 31 32 36 39 37 39 41 43 43 44 48 50 51 53 57 61 63 65 66 69 64 57 53 52 54 55 57 62 67 71 65 51 53 57
27 29 29 28 27 31 32 32 33 35 33 32 31 31 38 41 41 45 45 46 49 48 51 54 59 62 64 65 68 65 57 53 51 53 55 56 61 65 69 66 51 51 54 57
31 32 34 34 31 32 29 29 29 28 25 30 26 36 36 42 45 45 45 46 47 51 53 55 58 61 63 65 60 54 51 51 51 53 55 55 62 65 66 57 48 51 55 58
20 23 26 30 33 34 34 36 38 42 42 44 50 48 46 42 40 44 45 49 50 49 56 60 62 66 67 53 45 47 51 52 51 52 52 56 61 63 58 47 48 52 55 58
9 14 16 19 22 26 28 32 38 42 45 44 41 40 36 36 37 40 43 46 50 53 56 55 56 59 45 43 44 49 51 48 49 51 52 56 59 59 46 45 48 51 56 55
14 14 15 14 15 16 17 22 25 29 32 34 34 33 33 38 42 43 47 51 52 49 45 54 53 46 47 44 49 50 50 45 47 47 52 56 57 50 40 44 47 51 54 53
16 17 18 17 14 14 17 23 24 25 30 34 36 35 31 33 34 35 38 42 42 43 45 43 46 43 40 44 51 52 46 44 42 46 51 53 51 39 39 42 46 51 53 52
18 17 17 17 17 19 21 20 16 22 29 31 31 34 39 41 40 42 41 40 42 45 46 44 39 39 42 45 50 47 45 44 43 46 48 51 40 35 37 41 45 49 51 52
17 17 18 18 20 22 20 25 27 28 32 34 36 37 39 37 36 34 39 38 39 38 47 43 33 39 42 48 50 43 44 44 43 44 45 41 31 34 35 40 44 48 51 52
18 18 19 22 23 26 26 23 27 30 33 35 42 39 34 36 33 35 37 31 28 38 34 33 37 41 48 49 47 43 45 43 43 42 42 31 29 32 34 38 43 47 50 51
19 18 21 21 23 26 25 28 30 34 38 38 36 35 37 37 38 38 35 32 37 43 45 39 41 44 49 48 43 43 42 39 40 40 35 27 29 29 33 37 42 46 49 48
20 19 20 21 25 28 27 30 32 33 38 41 39 37 35 38 32 30 33 40 40 36 30 34 38 46 48 45 40 40 38 36 35 35 27 26 27 28 31 36 40 44 48 46
20 20 20 22 25 29 29 32 35 38 39 38 35 34 30 27 31 34 33 35 28 28 32 39 43 43 42 38 39 34 32 32 33 29 23 24 25 27 29 33 37 42 45 44
26 23 22 22 24 26 27 30 33 34 36 37 37 37 33 31 35 34 30 27 28 33 38 39 38 38 38 38 35 28 28 28 29 24 22 22 24 25 26 30 34 38 41 42
25 27 26 23 25 25 28 30 33 35 35 34 31 34 34 32 36 34 33 34 38 36 35 37 37 38 36 34 33 26 25 26 25 22 21 22 21 24 24 26 30 35 39 41
Wind_Direction
244 244 246 253 256 261 267 273 281 266 285 292 294 295 309 309 309 312 311 306 310 313 316 315 317 317 318 319 321 321 321 320 321 320 321 323 322 321 322 324 323 320 320 322
247 246 254 260 261 266 265 262 258 281 279 282 287 299 303 309 312 309 307 312 312 310 318 319 318 316 317 319 320 320 317 317 320 321 322 322 322 321 324 324 321 322 322 326
248 253 254 255 257 260 262 264 274 278 280 287 293 298 300 304 307 305 310 313 322 318 318 319 316 315 319 321 318 317 317 317 320 322 322 322 322 323 326 322 323 324 327 328
249 252 255 260 264 264 266 270 275 279 279 287 294 297 303 304 296 294 304 317 319 320 317 318 315 317 321 319 316 317 317 318 320 321 321 322 322 325 323 324 325 328 329 329
249 249 252 254 261 270 276 280 281 282 283 287 288 295 299 302 303 315 317 314 315 314 316 318 314 318 321 319 316 317 315 317 319 320 322 322 324 324 326 327 329 330 329 330
245 248 259 271 280 277 275 278 280 278 280 281 298 289 296 305 310 310 310 306 308 308 308 311 308 313 317 316 314 314 314 316 317 319 320 323 325 327 328 330 331 331 330 329
255 249 264 274 278 272 274 275 278 280 281 289 292 288 298 296 299 306 304 300 305 302 302 303 307 312 314 312 311 312 313 314 315 318 321 324 327 328 329 331 331 331 330 330
253 231 252 246 261 269 270 274 278 282 285 290 293 284 284 290 298 300 299 302 302 299 299 305 309 312 312 310 310 311 310 312 314 318 322 326 327 329 332 332 332 332 331 331
218 225 245 255 265 270 278 291 292 289 292 295 294 292 284 276 285 292 289 298 299 299 304 304 307 309 309 307 307 309 311 314 315 320 325 326 327 329 332 333 333 333 333 334
243 231 235 249 264 270 280 281 278 278 284 285 288 291 278 276 281 281 284 288 293 298 300 302 306 308 306 305 308 310 313 313 318 322 325 326 329 329 334 334 333 334 336 339
263 265 243 262 266 274 279 291 289 283 279 283 290 294 293 296 295 294 294 296 298 298 302 304 305 305 306 306 309 312 312 311 320 323 324 327 330 333 335 334 334 336 341 341
260 263 254 257 275 289 291 286 277 281 286 284 287 293 292 293 296 297 298 295 297 300 301 303 305 306 306 310 311 310 309 316 320 323 326 327 331 334 335 333 336 341 343 343
256 261 263 264 264 262 268 265 269 276 279 287 285 295 300 297 293 293 295 294 297 300 302 305 305 307 310 310 311 310 315 323 323 326 326 332 332 336 334 335 339 343 344 343
265 267 270 270 265 267 269 273 273 275 276 288 286 291 280 287 293 296 300 297 297 299 307 306 307 308 307 308 310 314 324 324 324 326 329 332 335 336 336 337 343 344 345 345
274 272 271 271 271 267 262 260 263 270 267 272 281 284 287 289 293 296 296 296 300 307 305 305 307 305 309 313 318 325 326 323 322 328 329 336 335 337 338 340 344 345 346 347
291 288 286 283 277 275 276 275 272 273 278 283 289 292 293 291 291 295 298 302 308 308 305 316 322 318 311 318 327 328 326 324 326 328 333 336 337 339 340 343 345 346 350 349
302 301 303 306 309 307 299 299 295 294 294 293 289 285 281 287 292 297 301 300 301 306 306 310 319 312 316 328 328 327 324 327 325 330 334 338 338 340 344 345 346 351 351 353
292 298 303 307 309 312 312 319 330 325 311 306 303 302 301 298 299 303 312 309 307 315 312 312 313 306 320 328 327 330 327 323 328 334 337 338 341 341 346 346 349 355 354 356
289 296 300 307 311 310 320 333 328 315 317 316 309 299 296 298 299 299 308 309 313 310 310 313 304 322 323 326 329 330 326 324 331 335 338 339 341 344 347 348 354 357 357 358
287 293 299 306 310 313 325 327 329 330 322 322 314 310 304 301 299 297 304 302 301 310 308 301 312 322 323 328 329 326 327 322 331 335 338 341 343 347 348 352 357 360 1 360
284 292 298 303 309 313 323 330 328 325 326 324 323 317 306 298 294 299 306 312 311 314 312 308 324 328 330 327 326 323 323 322 333 337 340 341 349 347 349 356 359 3 3 2
288 294 295 303 307 315 326 325 325 326 327 326 325 316 306 303 301 301 301 299 307 310 312 303 314 325 326 324 321 321 318 329 333 337 340 345 350 349 353 358 2 5 7 6
287 294 298 303 306 313 326 322 323 324 323 326 325 319 314 318 306 305 302 308 305 305 305 312 315 320 323 320 317 316 320 332 334 339 340 350 347 351 357 1 4 7 9 9
288 290 295 304 311 318 323 318 321 322 323 323 322 318 302 312 317 295 302 306 307 308 310 315 318 318 321 317 317 317 332 331 337 340 343 347 346 354 359 4 7 9 11 11
288 293 295 301 311 308 312 310 314 318 321 319 316 310 313 308 307 313 312 299 308 309 309 314 316 317 317 314 310 327 329 332 338 337 348 339 346 355 359 7 10 11 12 14
283 289 299 308 302 303 304 309 316 322 323 320 316 322 319 311 316 306 298 300 301 305 314 315 314 315 316 313 314 329 328 333 337 338 344 338 347 354 358 6 10 13 15 15
Height
5864 5867 5870 5872 5874 5876 5877 5877 5874 5872 5872 5868 5868 5866 5866 5863 5861 5858 5856 5853 5848 5845 5842 5836 5830 5825 5819 5813 5807 5799 5791 5784 5776 5767 5757 5748 5738 5728 5718 5708 5697 5685 5673 5661
5859 5862 5866 5867 5869 5869 5870 5870 5867 5871 5868 5865 5862 5862 5860 5856 5853 5849 5847 5844 5842 5839 5836 5832 5825 5818 5813 5807 5799 5793 5784 5776 5768 5759 5750 5740 5729 5718 5706 5694 5682 5672 5662 5650
5853 5859 5859 5861 5863 5864 5863 5863 5865 5866 5861 5859 5858 5857 5857 5857 5846 5840 5837 5836 5836 5834 5830 5826 5819 5812 5806 5800 5792 5785 5778 5768 5760 5751 5741 5730 5717 5706 5693 5680 5670 5659 5649 5637
5848 5853 5853 5854 5856 5859 5857 5859 5860 5861 5859 5856 5854 5846 5853 5849 5846 5839 5835 5831 5829 5827 5823 5818 5812 5806 5800 5792 5784 5778 5770 5761 5751 5743 5732 5721 5709 5696 5684 5672 5661 5649 5638 5624
5845 5846 5847 5849 5850 5854 5854 5854 5854 5854 5851 5849 5852 5845 5844 5840 5834 5832 5829 5824 5822 5819 5815 5810 5804 5798 5793 5787 5779 5771 5762 5753 5744 5733 5722 5711 5698 5685 5674 5663 5651 5638 5624 5612
5838 5839 5843 5844 5848 5848 5847 5848 5847 5846 5846 5843 5847 5840 5837 5832 5829 5827 5825 5820 5816 5812 5808 5803 5797 5792 5787 5779 5771 5762 5753 5744 5734 5724 5712 5700 5688 5678 5666 5653 5641 5628 5614 5600
5834 5837 5838 5839 5840 5841 5841 5841 5840 5840 5839 5839 5838 5833 5831 5826 5824 5822 5819 5812 5811 5807 5802 5796 5791 5785 5778 5770 5761 5753 5744 5735 5724 5714 5702 5690 5679 5669 5656 5644 5631 5618 5604 5589
5828 5831 5829 5833 5835 5835 5836 5836 5835 5831 5832 5832 5834 5830 5826 5824 5819 5816 5812 5806 5802 5799 5794 5790 5784 5776 5769 5760 5752 5746 5735 5725 5715 5704 5693 5681 5671 5659 5646 5634 5622 5608 5593 5578
5822 5825 5824 5826 5827 5830 5831 5829 5827 5825 5825 5823 5825 5823 5819 5817 5815 5813 5809 5803 5798 5794 5789 5782 5774 5768 5760 5751 5744 5736 5727 5717 5706 5694 5683 5673 5662 5650 5636 5624 5611 5598 5583 5568
5818 5822 5821 5821 5822 5823 5825 5825 5824 5823 5817 5815 5815 5814 5811 5811 5810 5808 5801 5796 5791 5786 5780 5774 5767 5760 5751 5742 5735 5727 5718 5707 5695 5684 5674 5664 5653 5642 5628 5615 5601 5587 5574 5562
5815 5819 5820 5819 5819 5819 5820 5820 5818 5814 5813 5809 5806 5807 5802 5803 5800 5798 5793 5789 5784 5778 5773 5766 5759 5751 5743 5734 5727 5718 5709 5698 5686 5677 5666 5656 5644 5633 5620 5608 5594 5580 5568 5556
5811 5813 5815 5815 5816 5816 5813 5811 5809 5807 5808 5805 5800 5799 5796 5793 5789 5786 5783 5779 5774 5769 5763 5757 5750 5742 5734 5727 5718 5708 5699 5687 5679 5669 5659 5648 5636 5623 5612 5600 5585 5572 5562 5550
5805 5805 5807 5810 5812 5805 5804 5802 5799 5799 5798 5797 5794 5793 5787 5784 5779 5776 5775 5770 5765 5760 5754 5748 5740 5733 5726 5718 5709 5700 5690 5681 5672 5664 5654 5640 5631 5617 5605 5592 5579 5569 5557 5544
5797 5799 5799 5800 5802 5800 5800 5798 5796 5793 5792 5789 5789 5785 5778 5775 5771 5769 5765 5760 5755 5750 5745 5738 5731 5724 5716 5710 5701 5692 5682 5673 5664 5656 5644 5634 5624 5611 5598 5586 5575 5565 5553 5540
5791 5791 5790 5791 5791 5793 5794 5792 5789 5785 5784 5782 5777 5776 5773 5770 5767 5762 5757 5752 5748 5743 5736 5730 5723 5715 5707 5701 5692 5684 5674 5665 5657 5647 5638 5627 5617 5604 5592 5581 5571 5561 5549 5535
5787 5785 5784 5784 5783 5782 5782 5782 5780 5779 5776 5775 5770 5767 5765 5762 5758 5755 5750 5745 5741 5736 5729 5724 5715 5709 5701 5693 5685 5677 5668 5660 5651 5642 5632 5621 5610 5598 5586 5578 5569 5558 5543 5531
5782 5781 5780 5780 5779 5777 5777 5774 5772 5770 5766 5765 5762 5761 5760 5756 5751 5748 5744 5739 5734 5727 5721 5716 5710 5701 5695 5687 5679 5670 5661 5652 5644 5636 5626 5614 5603 5593 5583 5576 5567 5553 5541 5527
5777 5776 5776 5775 5775 5774 5770 5768 5766 5762 5757 5754 5752 5752 5750 5746 5743 5739 5734 5729 5724 5718 5712 5707 5701 5693 5686 5680 5673 5664 5655 5646 5636 5629 5620 5609 5598 5590 5581 5573 5564 5549 5539 5525
5772 5772 5771 5770 5769 5768 5766 5765 5762 5757 5753 5750 5750 5746 5740 5736 5733 5730 5726 5720 5714 5709 5703 5698 5693 5686 5680 5673 5665 5657 5650 5642 5633 5623 5615 5605 5595 5587 5579 5572 5560 5549 5537 5524
5768 5767 5767 5766 5764 5762 5762 5758 5755 5752 5748 5745 5741 5736 5731 5728 5724 5721 5718 5712 5708 5702 5697 5691 5684 5679 5675 5666 5658 5651 5644 5638 5627 5619 5610 5600 5593 5586 5578 5570 5559 5548 5536 5523
5765 5764 5762 5760 5759 5757 5756 5753 5750 5748 5747 5738 5731 5727 5723 5719 5716 5712 5708 5704 5700 5695 5690 5684 5679 5673 5668 5659 5653 5646 5640 5632 5624 5614 5605 5598 5591 5585 5578 5568 5558 5548 5536 5523
5760 5760 5757 5756 5754 5753 5751 5748 5745 5741 5736 5732 5727 5721 5715 5712 5708 5705 5701 5699 5693 5688 5683 5677 5672 5667 5660 5653 5646 5641 5634 5625 5620 5611 5603 5597 5590 5584 5576 5566 5558 5548 5536 5524
5756 5756 5753 5753 5749 5746 5746 5741 5739 5736 5729 5724 5720 5716 5711 5706 5701 5698 5695 5692 5685 5680 5674 5670 5665 5660 5653 5647 5641 5634 5627 5620 5614 5606 5600 5594 5589 5582 5574 5566 5559 5549 5537 5527
5751 5751 5749 5747 5743 5740 5738 5734 5730 5726 5722 5719 5714 5709 5705 5701 5697 5692 5688 5682 5677 5673 5669 5663 5658 5653 5646 5641 5636 5628 5622 5617 5610 5604 5597 5592 5588 5580 5573 5566 5559 5550 5540 5530
5744 5745 5743 5742 5740 5737 5734 5731 5728 5723 5718 5713 5708 5703 5699 5694 5690 5686 5681 5676 5671 5666 5662 5656 5651 5645 5641 5636 5630 5622 5618 5612 5607 5601 5595 5592 5586 5580 5573 5566 5560 5553 5544 5534
5738 5737 5737 5736 5734 5731 5729 5725 5722 5717 5712 5707 5702 5697 5692 5689 5686 5681 5675 5671 5666 5660 5655 5651 5645 5639 5635 5630 5626 5620 5614 5609 5605 5600 5594 5590 5583 5578 5574 5567 5562 5555 5546 5537